KAITUO 1B
1 40912U 15049P   19167.47746433  .00000871  00000-0  44071-4 0  9993
2 40912  97.4493 174.8610 0014838 173.7352 341.4842 15.19588311206975
TIANWANG 1C (TW-1C)
1 40926U 15051B   19167.40480424  .00008527  00000-0  12538-3 0  9997
2 40926  97.1361 213.5829 0008812  34.7719  85.8174 15.55667682209803
TIANWANG 1B (TW-1B)
1 40927U 15051C   19167.55661255  .00008637  00000-0  13440-3 0  9992
2 40927  97.1388 213.1067 0009538  41.1558  94.2719 15.54098753209683
TIANWANG 1A (TW-1A)
1 40928U 15051D   19167.35689718  .00002412  00000-0  60833-4 0  9999
2 40928  97.1454 198.7132 0013158  82.9146  44.2547 15.40750615208813
LAPAN A2
1 40931U 15052B   19167.18766104  .00000713  00000-0  10343-4 0  9993
2 40931   6.0012  74.4251 0012591 120.8502 239.2991 14.76608541200893
LQSAT
1 40958U 15057A   19166.71091265  .00000037  00000-0  13432-4 0  9995
2 40958  97.8996 235.9886 0016799 248.0710 111.8746 14.73081270198369
CHUBUSAT 2
1 41338U 16012B   19167.16326288  .00000214  00000-0  99602-5 0  9997
2 41338  31.0019 160.8374 0013748  78.2186 281.9991 15.00150562182532
CHUBUSAT 3
1 41339U 16012C   19167.39916912  .00000205  00000-0  92128-5 0  9998
2 41339  31.0081 157.4372 0013713  86.8436 273.3768 15.00326454182562
OUFTI-1
1 41458U 16025C   19166.86432702 +.00000792 +00000-0 +44458-4 0  9998
2 41458 098.1015 253.5625 0166667 007.1055 353.2475 15.05801751172143
E-STAR-2
1 41459U 16025D   19167.47827830  .00000527  00000-0  31322-4 0  9999
2 41459  98.1020 253.8737 0167799   6.4399 353.8925 15.05449214172213
AAUSAT 4
1 41460U 16025E   19167.32396159  .00001020  00000-0  55178-4 0  9994
2 41460  98.0962 254.9440 0157969 359.4589   0.6445 15.07319673172314
NUSAT 1
1 41557U 16033B   19167.48878321  .00000830  00000-0  33889-4 0  9996
2 41557  97.4179 255.0010 0012442 310.2781  49.7370 15.27198325169750
BEESAT 4
1 41619U 16040W   19167.14994413  .00000957  00000-0  43461-4 0  9994
2 41619  97.3676 229.4211 0012374  39.9688 320.2458 15.23112358153477
PRATHAM
1 41783U 16059A   19167.13726601  .00000013  00000-0  11781-4 0  9990
2 41783  98.0675 226.7757 0034280  34.2450 326.0953 14.62995031145177
ALSAT 1N
1 41789U 16059G   19167.46977865  .00000056  00000-0  19633-4 0  9993
2 41789  98.0698 229.0894 0028890  23.3835 336.8678 14.64244244145327
NAYIF 1
1 42017U 17008BX  19167.40171904  .00001110  00000-0  46640-4 0  9997
2 42017  97.4033 234.5195 0006657 162.1922 197.9551 15.25512072129579
MAX VALIER SAT
1 42778U 17036P   19166.70158725 +.00000648 +00000-0 +31385-4 0  9995
2 42778 097.3546 224.4343 0011028 229.3631 130.6647 15.22003237109781
